Location: Devore Heights
(34.2372°N, 117.4156°W)
Time: 08:34:13
(UTC+00:00)

A-11 Canister half - Pass Details

Date: 14 September 2024
Orbit: 1515 x 1684 km, 47.2° (Epoch: 07 October)

Event Time Altitude Azimuth Distance (km) Brightness Sun altitude
Rises 05:06:17 0° 280° (W) 4,692 12.3 -37.1°
Reaches altitude 10° 05:09:43 10° 289° (WNW) 3,694 11.7 -37.7°
Maximum altitude 05:18:08 37° 354° (N) 2,197 10.0 -39.0°
Enters shadow 05:21:38 28° 34° (NE) 2,522 10.1 -39.6°
Drops below altitude 10° 05:26:32 10° 60° (ENE) 3,684 - -40.3°
Sets 05:29:57 0° 69° (ENE) 4,677 - -40.9°
